Weather History for KIND - August, 2013

Change the Weather History Date:

Wednesday, August 28, 2013

  Actual Average Record
Temperature  
Mean Temperature 84 °F 73 °F  
Max Temperature 94 °F 83 °F 96 °F (1953)
Min Temperature 74 °F 63 °F 43 °F (1986)
Degree Days  
Heating Degree Days 0 0  
Month to date heating degree days 5 0  
Since 1 June heating degree days 17 17  
Since 1 July heating degree days 8 1  
Cooling Degree Days 19 8  
Month to date cooling degree days 268 266  
Year to date cooling degree days 908 899  
Since 1 June cooling degree days 779 815  
Growing Degree Days 33 (Base 50)    
Moisture  
Dew Point 70 °F    
Average Humidity 67    
Maximum Humidity 87    
Minimum Humidity 46    
Precipitation  
Precipitation T in 0.10 in 2.44 in (1914)
Month to date precipitation 0.85 2.83  
Year to date precipitation 29.63 29.03  
Snow  
Snow 0.00 in 0.00 in 0.00 in ()
Month to date snowfall 0.0 0.0  
Since 1 June snowfall 0.0 0.0  
Since 1 July snowfall 0.0 0.0  
Snow Depth 0.00 in    
Sea Level Pressure  
Sea Level Pressure 29.93 in    
Wind  
Wind Speed 12 mph (West)    
Max Wind Speed 22 mph    
Max Gust Speed 26 mph    
Visibility 10 miles    
Events Rain    
T = Trace of Precipitation, MM = Missing Value Source: NWS Daily Summary

Daily Weather History Graph

Daily Weather History Graph

Search for Another Location

Airport or City:

Trip Planner

Search our weather history database for the weather conditions in past years. The results will help you decide how hot, cold, wet, or windy it might be!

Date:

Astronomy

Aug. 28, 2013 Rise Set
Actual Time 7:09 AM EDT 8:22 PM EDT
Civil Twilight 6:41 AM EDT 8:49 PM EDT
Nautical Twilight 6:08 AM EDT 9:23 PM EDT
Astronomical Twilight 5:33 AM EDT 9:57 PM EDT
Moon 12:17 AM EDT (8/28) 2:58 PM EDT (8/28)
Length of Visible Light 14h 08m
Length of Day
13h 12m
Waning Gibbous, 47% of the Moon is Illuminated
Aug 28
Waning Gibbous
Sep 5
New
Sep 12
First Quarter
Sep 19
Full
Sep 26
Last Quarter

Hourly Weather History & Observations

Time (EDT) Temp. Heat Index Dew Point Humidity Pressure Visibility Wind Dir Wind Speed Gust Speed Precip Events Conditions
12:54 AM 75.9 °F - 70.0 °F 82% 29.94 in 10.0 mi SW 8.1 mph - N/A   Partly Cloudy
1:54 AM 75.9 °F - 70.0 °F 82% 29.93 in 10.0 mi SW 10.4 mph - N/A   Scattered Clouds
2:54 AM 75.9 °F - 70.0 °F 82% 29.93 in 10.0 mi SW 11.5 mph - N/A   Partly Cloudy
3:54 AM 75.9 °F - 71.1 °F 85% 29.93 in 10.0 mi WSW 9.2 mph - N/A   Mostly Cloudy
4:54 AM 75.9 °F - 71.1 °F 85% 29.94 in 10.0 mi SW 9.2 mph - N/A   Mostly Cloudy
5:54 AM 75.0 °F - 70.0 °F 84% 29.94 in 10.0 mi WSW 11.5 mph - N/A   Mostly Cloudy
6:54 AM 73.9 °F - 69.1 °F 85% 29.94 in 10.0 mi WSW 10.4 mph - N/A   Scattered Clouds
7:54 AM 73.9 °F - 69.1 °F 85% 29.94 in 10.0 mi WSW 12.7 mph - N/A   Scattered Clouds
8:54 AM 78.1 °F - 68.0 °F 71% 29.92 in 10.0 mi WSW 15.0 mph - N/A   Partly Cloudy
9:54 AM 82.9 °F 85.4 °F 66.9 °F 58% 29.93 in 10.0 mi West 17.3 mph - N/A   Partly Cloudy
10:54 AM 87.1 °F 89.2 °F 66.0 °F 49% 29.93 in 10.0 mi West 20.7 mph 24.2 mph N/A   Clear
11:54 AM 89.1 °F 92.1 °F 66.9 °F 48% 29.93 in 10.0 mi West 16.1 mph - N/A   Partly Cloudy
12:54 PM 91.0 °F 95.2 °F 68.0 °F 47% 29.92 in 10.0 mi West 12.7 mph - N/A   Partly Cloudy
1:54 PM 91.0 °F 95.6 °F 69.1 °F 48% 29.92 in 10.0 mi West 12.7 mph 20.7 mph N/A   Partly Cloudy
2:54 PM 93.9 °F 100.3 °F 70.0 °F 46% 29.92 in 10.0 mi West 17.3 mph 21.9 mph N/A   Scattered Clouds
3:54 PM 93.0 °F 100.1 °F 71.1 °F 49% 29.91 in 10.0 mi West 11.5 mph 25.3 mph N/A   Mostly Cloudy
4:54 PM 91.0 °F 97.6 °F 71.1 °F 52% 29.90 in 10.0 mi West 15.0 mph 19.6 mph N/A   Mostly Cloudy
5:54 PM 91.9 °F 99.5 °F 72.0 °F 52% 29.90 in 10.0 mi West 15.0 mph - N/A   Mostly Cloudy
6:54 PM 89.1 °F 95.0 °F 71.1 °F 55% 29.91 in 10.0 mi WNW 10.4 mph - N/A Rain Light Rain
7:54 PM 86.0 °F 93.0 °F 73.0 °F 65% 29.92 in 10.0 mi NNW 12.7 mph - N/A Rain Light Rain
8:54 PM 82.9 °F 89.4 °F 73.9 °F 74% 29.93 in 10.0 mi North 9.2 mph - N/A   Mostly Cloudy
9:54 PM 81.0 °F 85.2 °F 72.0 °F 74% 29.95 in 10.0 mi North 9.2 mph - N/A   Mostly Cloudy
10:54 PM 79.0 °F - 72.0 °F 79% 29.97 in 10.0 mi NNW 9.2 mph - N/A   Mostly Cloudy
11:54 PM 77.0 °F - 71.1 °F 82% 29.97 in 9.0 mi North 9.2 mph - N/A   Mostly Cloudy